SP6PWT-13 Weather Reports


time (UTC)temp
C
wind
direction
speed
KPH
gust
KPH
rain 1hr
cm
rain 24hr
cm
rain mn
cm
humidity
%
barometer
mb
20260506224612 13 171 3.2 3.2 0.38 0.00 0.25 98 991.3
20260506224112 13 208 1.6 3.2 0.36 0.00 0.23 98 991.1
20260506223612 13 270 3.2 3.2 0.36 0.00 0.23 98 990.9
20260506223111 13 147 1.6 4.8 0.30 0.00 0.18 98 991.1
20260506222611 13 255 3.2 8.0 0.33 0.00 0.18 98 990.9
20260506222110 13 238 0.0 3.2 0.36 0.00 0.18 98 990.8
20260506221610 13 27 4.8 8.0 0.33 0.00 0.15 98 990.4
20260506221109 13 41 3.2 9.7 0.33 0.00 0.15 98 990.1
20260506220609 13 59 9.7 12.9 0.30 0.00 0.13 98 990.4
20260506220108 13 345 8.0 11.3 0.18 0.00 0.00 98 990.3
20260506215608 13 29 1.6 4.8 0.10 0.00 1.40 98 990.5
20260506215107 13 30 4.8 8.0 0.08 0.00 1.37 98 990.3
20260506214607 13 25 4.8 8.0 0.08 0.00 1.37 98 990.2
20260506214107 13 48 8.0 12.9 0.08 0.00 1.37 98 989.9
20260506213606 13 61 9.7 20.9 0.08 0.00 1.37 98 989.7
20260506213105 13 42 9.7 14.5 0.08 0.00 1.35 98 990.1
20260506212604 13 25 4.8 8.0 0.05 0.00 1.32 98 990.3
20260506212104 13 41 1.6 3.2 0.08 0.00 1.32 98 990.7
20260506211603 13 65 0.0 0.0 0.10 0.00 1.32 97 990.7
20260506211102 13 59 0.0 4.8 0.13 0.00 1.32 97 990.5
20260506210601 13 23 0.0 1.6 0.15 0.00 1.32 97 990.5
20260506210100 13 359 0.0 1.6 0.15 0.00 1.30 97 990.6
20260506205600 14 334 1.6 3.2 0.20 0.00 1.30 97 990.7
20260506205100 13 138 0.0 0.0 0.25 0.00 1.30 97 990.7
20260506204600 13 194 3.2 3.2 0.28 0.00 1.30 97 991.0
20260506204059 13 146 4.8 4.8 0.38 0.00 1.30 97 990.7
20260506203559 13 126 0.0 0.0 0.38 0.00 1.27 97 990.7
20260506203058 13 77 0.0 4.8 0.41 0.00 1.27 97 990.4
20260506202558 13 81 4.8 8.0 0.38 0.00 1.24 96 990.5
20260506202057 14 51 1.6 4.8 0.36 0.00 1.22 96 990.4
20260506201556 14 25 3.2 4.8 0.33 0.00 1.19 96 990.2
20260506201046 14 2 4.8 4.8 0.33 0.00 1.17 96 990.5
20260506200545 14 275 3.2 8.0 0.30 0.00 1.14 96 990.8
20260506200044 14 253 4.8 4.8 0.25 0.00 1.09 96 990.8
20260506195534 14 44 0.0 12.9 0.25 0.00 1.07 96 990.7
20260506195034 14 288 11.3 12.9 0.23 0.00 1.02 96 991.1
20260506194523 14 264 3.2 12.9 0.15 0.00 0.91 96 990.7
20260506194023 14 288 9.7 14.5 0.18 0.00 0.89 96 990.6
20260506193513 14 336 4.8 9.7 0.23 0.00 0.86 96 990.1
20260506193013 14 18 6.4 9.7 0.33 0.00 0.86 96 990.1
20260506192513 14 286 9.7 11.3 0.33 0.00 0.86 95 990.3
20260506192012 14 5 3.2 4.8 0.38 0.00 0.86 95 990.0
20260506191511 14 49 0.0 4.8 0.43 0.00 0.84 95 989.9
20260506191010 14 33 3.2 3.2 0.43 0.00 0.84 94 990.0
20260506190509 14 78 1.6 3.2 0.51 0.00 0.84 94 990.5
20260506190009 14 98 1.6 3.2 0.51 0.00 0.81 94 990.5
20260506185509 14 329 1.6 3.2 0.48 0.00 0.79 94 990.5
20260506185008 14 254 1.6 3.2 0.51 0.00 0.76 93 990.4
20260506184507 14 42 0.0 3.2 0.46 0.00 0.71 93 990.4
20260506184006 14 96 0.0 1.6 0.38 0.00 0.64 92 990.2
20260506183505 14 145 8.0 9.7 0.33 0.00 0.58 91 990.5
20260506183005 15 152 9.7 11.3 0.30 0.00 0.53 90 990.3
20260506182503 15 141 11.3 14.5 0.25 0.00 0.48 89 990.6
20260506182003 15 145 12.9 16.1 0.23 0.00 0.46 87 990.5
20260506181502 15 204 4.8 8.0 0.18 0.00 0.41 84 990.1
20260506181001 15 222 3.2 9.7 0.13 0.00 0.36 85 989.6
20260506180501 15 203 4.8 9.7 0.10 0.00 0.33 86 989.7
20260506180001 15 166 6.4 9.7 0.13 0.00 0.30 85 989.5
20260506175501 15 212 4.8 9.7 0.15 0.00 0.28 84 989.6
20260506175000 15 135 1.6 1.6 0.18 0.00 0.25 87 989.8
20260506174500 15 126 0.0 1.6 0.23 0.00 0.25 86 989.5
20260506173959 15 78 1.6 3.2 0.25 0.00 0.25 86 989.4
20260506173448 15 117 8.0 8.0 0.25 0.00 0.25 83 989.2
20260506172948 16 148 4.8 4.8 0.23 0.00 0.23 84 989.2
20260506172437 16 123 9.7 11.3 0.23 0.00 0.23 83 988.9
20260506171936 16 132 8.0 9.7 0.23 0.00 0.23 82 988.8
20260506171435 16 113 6.4 8.0 0.23 0.00 0.23 80 988.7
20260506170924 16 107 8.0 9.7 0.23 0.00 0.23 81 988.6
20260506170424 16 74 0.0 1.6 0.20 0.00 0.20 81 988.8
20260506165913 16 211 4.8 9.7 0.18 0.00 0.18 77 988.9
20260506165412 16 132 8.0 12.9 0.10 0.00 0.10 76 989.3
20260506164901 17 180 12.9 27.4 0.08 0.00 0.08 71 989.3
20260506164401 20 145 27.4 41.8 0.00 0.00 0.00 61 989.3
20260506163900 22 221 17.7 25.7 0.00 0.00 0.00 46 989.1
20260506163400 22 203 4.8 8.0 0.00 0.00 0.00 43 988.8
20260506162900 22 253 9.7 12.9 0.00 0.00 0.00 42 988.6
20260506162400 22 268 8.0 11.3 0.00 0.00 0.00 42 988.8
20260506161900 22 248 4.8 12.9 0.00 0.00 0.00 42 988.7
20260506161358 22 225 8.0 9.7 0.00 0.00 0.00 41 988.6
20260506160858 22 178 3.2 11.3 0.00 0.00 0.00 42 988.7
20260506160357 22 255 6.4 12.9 0.00 0.00 0.00 42 988.6
20260506155857 22 153 9.7 14.5 0.00 0.00 0.00 42 988.8
20260506155356 22 264 11.3 16.1 0.00 0.00 0.00 42 988.7
20260506154855 22 219 6.4 9.7 0.00 0.00 0.00 42 988.7
20260506154354 22 265 9.7 12.9 0.00 0.00 0.00 41 988.8
20260506153854 22 243 11.3 16.1 0.00 0.00 0.00 41 988.6
20260506153354 23 203 6.4 14.5 0.00 0.00 0.00 41 988.8
20260506152853 23 124 4.8 11.3 0.00 0.00 0.00 40 988.7
20260506152352 23 246 9.7 12.9 0.00 0.00 0.00 40 988.9
20260506151851 23 276 9.7 11.3 0.00 0.00 0.00 40 988.8
20260506151350 23 185 4.8 9.7 0.00 0.00 0.00 40 988.8
20260506150849 23 200 8.0 12.9 0.00 0.00 0.00 40 988.9
20260506150350 23 258 11.3 17.7 0.00 0.00 0.00 39 989.0
20260506145848 23 294 11.3 17.7 0.00 0.00 0.00 40 989.0
20260506145348 23 215 9.7 16.1 0.00 0.00 0.00 40 988.9
20260506144848 23 213 6.4 20.9 0.00 0.00 0.00 40 989.2
20260506143847 23 228 12.9 17.7 0.00 0.00 0.00 38 989.2
20260506143346 23 199 6.4 14.5 0.00 0.00 0.00 39 989.1
20260506142846 23 229 9.7 14.5 0.00 0.00 0.00 41 989.2
20260506142346 22 234 4.8 12.9 0.00 0.00 0.00 42 989.4
20260506141845 22 294 1.6 12.9 0.00 0.00 0.00 43 989.5
20260506141345 22 250 20.9 24.1 0.00 0.00 0.00 43 989.5
20260506140844 22 237 17.7 20.9 0.00 0.00 0.00 43 989.5
20260506140343 22 224 12.9 16.1 0.00 0.00 0.00 44 989.5
20260506135842 22 295 4.8 11.3 0.00 0.00 0.00 44 989.7
20260506135341 22 232 9.7 22.5 0.00 0.00 0.00 44 989.5
20260506134840 22 281 14.5 17.7 0.00 0.00 0.00 43 989.6
20260506134340 22 146 4.8 20.9 0.00 0.00 0.00 44 989.5
20260506133840 22 144 9.7 17.7 0.00 0.00 0.00 46 989.7
20260506133339 22 225 12.9 24.1 0.00 0.00 0.00 45 989.7
20260506132838 22 232 20.9 25.7 0.00 0.00 0.00 46 989.6
20260506132337 22 237 12.9 29.0 0.00 0.00 0.00 45 989.5
20260506131836 22 60 6.4 17.7 0.00 0.00 0.00 46 989.6
20260506131336 22 232 17.7 22.5 0.00 0.00 0.00 46 989.8
20260506130835 22 208 12.9 37.0 0.00 0.00 0.00 45 989.7
20260506130334 22 228 14.5 24.1 0.00 0.00 0.00 45 989.7
20260506125834 22 299 8.0 17.7 0.00 0.00 0.00 47 989.6
20260506125333 21 207 14.5 22.5 0.00 0.00 0.00 47 989.7
20260506124822 21 232 16.1 29.0 0.00 0.00 0.00 48 989.8
20260506124321 21 146 11.3 24.1 0.00 0.00 0.00 49 989.9
20260506123810 21 173 9.7 14.5 0.00 0.00 0.00 49 989.9
20260506123310 21 204 6.4 17.7 0.00 0.00 0.00 48 989.9
20260506122800 21 17 1.6 16.1 0.00 0.00 0.00 48 989.8
20260506122300 21 98 8.0 22.5 0.00 0.00 0.00 50 989.9
20260506121759 21 176 12.9 35.4 0.00 0.00 0.00 49 989.9
20260506121249 21 224 6.4 25.7 0.00 0.00 0.00 49 989.7
20260506120748 21 295 8.0 17.7 0.00 0.00 0.00 49 989.9
20260506120238 21 258 3.2 14.5 0.00 0.00 0.00 51 989.8
20260506115737 20 219 11.3 24.1 0.00 0.00 0.00 51 990.0
20260506115236 20 161 4.8 17.7 0.00 0.00 0.00 51 989.8
20260506114735 20 257 8.0 32.2 0.00 0.00 0.00 51 989.8
20260506114224 20 208 22.5 27.4 0.00 0.00 0.00 52 989.8
20260506113724 20 219 17.7 25.7 0.00 0.00 0.00 52 989.8
20260506113223 20 306 4.8 17.7 0.00 0.00 0.00 53 989.7
20260506112721 20 165 16.1 25.7 0.00 0.00 0.00 52 990.0
20260506112221 20 237 6.4 14.5 0.00 0.00 0.00 53 989.9
20260506111720 20 251 8.0 24.1 0.00 0.00 0.00 52 989.9
20260506111219 20 140 14.5 24.1 0.00 0.00 0.00 52 990.1
20260506110718 20 212 11.3 22.5 0.00 0.00 0.00 53 989.9
20260506110207 20 138 4.8 14.5 0.00 0.00 0.00 54 989.8
20260506105706 20 215 25.7 27.4 0.00 0.00 0.00 53 989.8
20260506105205 20 201 14.5 25.7 0.00 0.00 0.00 53 989.9
20260506104705 20 138 6.4 16.1 0.00 0.00 0.00 53 989.8
20260506104154 20 264 4.8 20.9 0.00 0.00 0.00 54 989.8
20260506103654 20 236 14.5 24.1 0.00 0.00 0.00 54 989.9
20260506103153 20 220 25.7 29.0 0.00 0.00 0.00 53 989.9
20260506102652 20 216 11.3 22.5 0.00 0.00 0.00 53 989.9
20260506102151 20 201 14.5 20.9 0.00 0.00 0.00 53 989.8
20260506101641 20 181 14.5 24.1 0.00 0.00 0.00 53 989.9
20260506101140 20 258 9.7 25.7 0.00 0.00 0.00 54 990.1
20260506100640 20 148 12.9 24.1 0.00 0.00 0.00 53 990.1
20260506100139 20 232 20.9 25.7 0.00 0.00 0.00 53 989.9
20260506095638 20 210 20.9 22.5 0.00 0.00 0.00 53 989.6
20260506095127 20 141 14.5 17.7 0.00 0.00 0.00 54 989.8
20260506094626 20 152 6.4 29.0 0.00 0.00 0.00 55 989.8
20260506094115 20 174 8.0 22.5 0.00 0.00 0.00 56 989.6
20260506093616 19 172 4.8 22.5 0.00 0.00 0.00 58 989.7
20260506093105 19 126 4.8 16.1 0.00 0.00 0.00 58 989.7
20260506092603 19 211 14.5 22.5 0.00 0.00 0.00 58 989.7
20260506092103 18 198 14.5 22.5 0.00 0.00 0.00 60 989.7
20260506091602 18 230 17.7 25.7 0.00 0.00 0.00 60 989.8
20260506091051 18 198 14.5 27.4 0.00 0.00 0.00 60 989.7
20260506090550 18 189 11.3 22.5 0.00 0.00 0.00 60 989.6
20260506090040 18 225 22.5 32.2 0.00 0.00 0.00 59 989.6
20260506085538 18 236 14.5 20.9 0.00 0.00 0.00 61 989.7
20260506085028 18 232 6.4 16.1 0.00 0.00 0.00 64 989.7
20260506084527 18 268 9.7 14.5 0.00 0.00 0.00 64 989.7
20260506084017 18 319 11.3 12.9 0.00 0.00 0.00 63 989.7
20260506083516 18 234 8.0 14.5 0.00 0.00 0.00 64 989.7
20260506083015 18 258 8.0 16.1 0.00 0.00 0.00 65 989.7
20260506082513 18 247 9.7 16.1 0.00 0.00 0.00 64 989.6
20260506082013 18 240 4.8 14.5 0.00 0.00 0.00 66 989.6
20260506081512 18 238 14.5 16.1 0.00 0.00 0.00 66 989.5
20260506081011 18 197 14.5 20.9 0.00 0.00 0.00 66 989.5
20260506080510 18 35 6.4 14.5 0.00 0.00 0.00 67 989.7
20260506073507 17 136 6.4 9.7 0.00 0.00 0.00 69 989.5
20260506073007 17 162 4.8 11.3 0.00 0.00 0.00 69 989.5
20260506072506 17 198 3.2 11.3 0.00 0.00 0.00 70 989.4
20260506072005 16 262 3.2 8.0 0.00 0.00 0.00 71 989.2
20260506071505 17 221 9.7 14.5 0.00 0.00 0.00 70 989.3
20260506071004 17 223 8.0 11.3 0.00 0.00 0.00 70 989.2
20260506070504 16 269 4.8 8.0 0.00 0.00 0.00 71 989.4
20260506062459 15 59 1.6 3.2 0.00 0.00 0.00 77 989.0
20260506061958 15 292 0.0 4.8 0.00 0.00 0.00 76 989.1
20260506061458 15 298 0.0 8.0 0.00 0.00 0.00 75 989.3
20260506060957 15 126 0.0 4.8 0.00 0.00 0.00 76 989.2
20260506060456 14 95 0.0 1.6 0.00 0.00 0.00 79 989.2
20260506050949 13 225 4.8 9.7 0.00 0.00 0.00 82 988.9
20260506050449 12 153 1.6 4.8 0.00 0.00 0.00 83 989.0
20260506044948 12 136 3.2 3.2 0.00 0.00 0.00 85 988.8
20260506044447 12 222 1.6 9.7 0.00 0.00 0.00 85 988.6
20260506043947 12 229 6.4 8.0 0.00 0.00 0.00 85 988.8
20260506043446 12 181 3.2 4.8 0.00 0.00 0.00 85 988.8
20260506042946 12 185 1.6 3.2 0.00 0.00 0.00 84 988.5
20260506042446 12 185 0.0 1.6 0.00 0.00 0.00 85 988.4
20260506041944 12 141 0.0 3.2 0.00 0.00 0.00 85 988.7
20260506041444 12 269 3.2 4.8 0.00 0.00 0.00 85 988.6
20260506040944 12 188 1.6 8.0 0.00 0.00 0.00 86 988.5
20260506040444 12 193 4.8 9.7 0.00 0.00 0.00 86 988.4
20260506035943 12 223 8.0 12.9 0.00 0.00 0.00 86 988.5
20260506035442 12 207 4.8 8.0 0.00 0.00 0.00 86 988.5
20260506034942 12 212 4.8 8.0 0.00 0.00 0.00 86 988.4
20260506034441 12 210 6.4 8.0 0.00 0.00 0.00 84 988.2
20260506033941 12 141 0.0 0.0 0.00 0.00 0.00 86 987.9
20260506033440 11 125 0.0 3.2 0.00 0.00 0.00 85 987.9
20260506032939 12 95 1.6 1.6 0.00 0.00 0.00 84 987.8
20260506032439 12 200 0.0 0.0 0.00 0.00 0.00 83 987.9
20260506031939 12 200 0.0 1.6 0.00 0.00 0.00 83 987.8
20260506031438 12 200 0.0 1.6 0.00 0.00 0.00 83 987.9
20260506030937 12 321 0.0 0.0 0.00 0.00 0.00 83 987.9
20260506030436 12 328 0.0 0.0 0.00 0.00 0.00 83 987.9
20260506025936 12 342 0.0 0.0 0.00 0.00 0.00 83 987.9
20260506025435 12 292 0.0 3.2 0.00 0.00 0.00 83 988.2
20260506024935 12 278 1.6 3.2 0.00 0.00 0.00 82 988.4
20260506024434 12 192 1.6 3.2 0.00 0.00 0.00 81 988.4
20260506023933 12 188 4.8 8.0 0.00 0.00 0.00 80 988.5
20260506023432 12 253 4.8 14.5 0.00 0.00 0.00 80 988.7
20260506022931 12 236 8.0 11.3 0.00 0.00 0.00 79 988.7
20260506022420 13 273 4.8 8.0 0.00 0.00 0.00 77 988.7
20260506021920 13 251 1.6 3.2 0.00 0.00 0.00 77 988.6
20260506021419 13 302 1.6 4.8 0.00 0.00 0.00 77 988.4
20260506020908 13 223 1.6 3.2 0.00 0.00 0.00 77 988.8
20260506020408 13 306 3.2 4.8 0.00 0.00 0.00 76 988.6
20260506015906 13 297 4.8 4.8 0.00 0.00 0.00 76 988.9
20260506015356 13 141 0.0 1.6 0.00 0.00 0.00 76 988.7
20260506014855 13 321 1.6 3.2 0.00 0.00 0.00 75 988.6
20260506014354 13 310 4.8 4.8 0.00 0.00 0.00 75 988.6
20260506013854 13 288 4.8 4.8 0.00 0.00 0.00 75 988.6
20260506013343 13 286 4.8 4.8 0.00 0.00 0.00 75 988.4
20260506012842 13 0 3.2 9.7 0.00 0.00 0.00 75 988.7
20260506012341 13 301 4.8 11.3 0.00 0.00 0.00 75 988.6
20260506011840 13 289 3.2 8.0 0.00 0.00 0.00 75 988.7
20260506011329 13 314 4.8 8.0 0.00 0.00 0.00 74 988.6
20260506010829 13 309 1.6 8.0 0.00 0.00 0.00 74 988.7
20260506010329 13 328 3.2 3.2 0.00 0.00 0.00 74 988.6
20260506005828 13 298 3.2 4.8 0.00 0.00 0.00 73 988.5
20260506005317 13 231 1.6 4.8 0.00 0.00 0.00 74 988.7
20260506004816 13 335 3.2 4.8 0.00 0.00 0.00 74 988.6
20260506004315 13 293 4.8 8.0 0.00 0.00 0.00 74 988.7
20260506003804 13 287 4.8 8.0 0.00 0.00 0.00 74 988.5
20260506003303 13 299 6.4 8.0 0.00 0.00 0.00 74 988.6
20260506002803 13 284 4.8 8.0 0.00 0.00 0.00 74 988.5
20260506002305 13 323 8.0 11.3 0.00 0.00 0.00 73 988.3
20260506001801 14 299 8.0 12.9 0.00 0.00 0.00 73 988.3
20260506001301 14 304 8.0 11.3 0.00 0.00 0.00 72 988.4
20260506000800 14 287 6.4 8.0 0.00 0.00 0.00 71 988.3
20260506000302 14 332 4.8 8.0 0.00 0.00 0.00 71 988.5
20260505235759 14 329 3.2 3.2 0.00 0.00 0.00 71 988.5
20260505235259 14 325 4.8 4.8 0.00 0.00 0.00 71 988.5
20260505234758 14 30 3.2 4.8 0.00 0.00 0.00 71 988.5
20260505234258 14 307 6.4 8.0 0.00 0.00 0.00 71 988.6
20260505233757 14 302 6.4 9.7 0.00 0.00 0.00 72 988.5
20260505233257 14 314 8.0 11.3 0.00 0.00 0.00 71 988.5
20260505232756 14 341 3.2 9.7 0.00 0.00 0.00 71 988.6
20260505232256 14 311 4.8 12.9 0.00 0.00 0.00 71 988.6
20260505231755 14 336 6.4 9.7 0.00 0.00 0.00 70 988.5
20260505231255 14 325 6.4 9.7 0.00 0.00 0.00 70 988.5
20260505230755 15 354 9.7 11.3 0.00 0.00 0.00 70 988.5
20260505230254 15 10 6.4 9.7 0.00 0.00 0.00 70 988.6
20260505225753 15 20 8.0 12.9 0.00 0.00 0.00 69 988.7
20260505225253 15 330 8.0 12.9 0.00 0.00 0.00 69 988.7